This is the latest recevied weather packets stored in our database for station/object VE3MNX. If no packets are shown the sender has not sent any weather packets the latest 10 day(s).
| Time | Temp. | Humidity | Pressure | Rain* | Wind** | Luminosity | Snow |
|---|---|---|---|---|---|---|---|
| 1778078297 | 7.78° C | 78% | 1010.2 hPa | 0 mm | - | - | - |
| 1778077401 | 8.33° C | 81% | 1010.2 hPa | 0 mm | - | - | - |
| 1778076498 | 7.78° C | 79% | 1010.2 hPa | 0 mm | - | - | - |
| 1778075599 | 7.22° C | 82% | 1009.8 hPa | 0 mm | - | - | - |
| 1778074697 | 6.67° C | 83% | 1009.7 hPa | 0 mm | - | - | - |
| 1778073799 | 6.67° C | 86% | 1009.5 hPa | 0 mm | - | - | - |
| 1778072897 | 6.11° C | 86% | 1009.5 hPa | 0 mm | - | - | - |
| 1778071998 | 5.56° C | 89% | 1009.5 hPa | 0 mm | - | - | - |
| 1778071098 | 5° C | 88% | 1009.1 hPa | 0 mm | - | - | - |
| 1778070199 | 5° C | 89% | 1009.1 hPa | 0 mm | - | - | - |
| 1778069298 | 5° C | 90% | 1009.1 hPa | 0 mm | - | - | - |
| 1778068400 | 5.56° C | 90% | 1008.5 hPa | 0 mm | - | - | - |
| 1778067498 | 6.11° C | 90% | 1008.5 hPa | 0 mm | - | - | - |
| 1778066601 | 6.67° C | 89% | 1008.1 hPa | 0 mm | - | - | - |
| 1778065697 | 7.78° C | 92% | 1007.8 hPa | 0 mm | - | - | - |
| 1778064798 | 7.22° C | 94% | 1007.5 hPa | 0 mm | - | - | - |
| 1778063898 | 7.78° C | 93% | 1007.1 hPa | 0 mm | - | - | - |
| 1778062998 | 7.78° C | 93% | 1006.8 hPa | 0 mm | - | - | - |
| 1778062098 | 7.78° C | 91% | 1006.8 hPa | 0 mm | - | - | - |
| 1778061197 | 7.22° C | 91% | 1007.1 hPa | 0 mm | - | - | - |
| 1778060297 | 7.22° C | 91% | 1007.1 hPa | 0 mm | - | - | - |
| 1778059401 | 7.22° C | 93% | 1007 hPa | 0 mm | - | - | - |
| 1778058497 | 7.22° C | 90% | 1007.1 hPa | 0 mm | - | - | - |
| 1778057599 | 7.22° C | 90% | 1007.5 hPa | 0 mm | - | - | - |
| 1778056697 | 7.22° C | 90% | 1006.8 hPa | 0 mm | - | - | - |
* Rain latest hour (hover to see other rain measurements)
** Current wind speed in m/s (hover to see current wind gust speed)